Home > Products > Valid Products > MTR

000
SAGM31 PGUM 281554
MTRGUM
METAR PGUM 281554Z 07011KT 10SM FEW016 SCT036 BKN070 26/23 A2992 RMK
AO2 RAB11E28 SLP125 P0000 T02560233




000
SAGM31 PGUM 281554
MTRGUM
METAR PGUM 281554Z 07011KT 10SM FEW016 SCT036 BKN070 26/23 A2992 RMK
AO2 RAB11E28 SLP125 P0000 T02560233





000
SAGM31 PGUM 281455
MTRGUM
METAR PGUM 281454Z 07009KT 10SM FEW023 SCT030 SCT041 26/23 A2994 RMK
AO2 SLP131 T02610233 58009




000
SAGM31 PGUM 281355
MTRGUM
METAR PGUM 281354Z 07009KT 10SM FEW022 26/23 A2996 RMK AO2 SLP138
T02610233 403060244




000
SAGM31 PGUM 281355
MTRGUM
METAR PGUM 281354Z 07009KT 10SM FEW022 26/23 A2996 RMK AO2 SLP138
T02610233 403060244





000
SAGM31 PGUM 281255
MTRGUM
METAR PGUM 281254Z 07011KT 10SM FEW025 26/23 A2997 RMK AO2 SLP139
T02610233





000
SAGM31 PGUM 281255
MTRGUM
METAR PGUM 281254Z 07011KT 10SM FEW025 26/23 A2997 RMK AO2 SLP139
T02610233





000
SAGM31 PGUM 281255
MTRGUM
METAR PGUM 281254Z 07011KT 10SM FEW025 26/23 A2997 RMK AO2 SLP139
T02610233




000
SAGM31 PGUM 281255
MTRGUM
METAR PGUM 281254Z 07011KT 10SM FEW025 26/23 A2997 RMK AO2 SLP139
T02610233




000
SAGM31 PGUM 281155
MTRGUM
METAR PGUM 281154Z COR 07009KT 10SM FEW038 SCT050 BKN060 26/23 A2997
RMK AO2 RAB28E40 SLP141 P0000 60000 70004 T02610233 10300 20256
51013




000
SAGM31 PGUM 281155
MTRGUM
METAR PGUM 281154Z COR 07009KT 10SM FEW038 SCT050 BKN060 26/23 A2997
RMK AO2 RAB28E40 SLP141 P0000 60000 70004 T02610233 10300 20256
51013





000
SAGM31 PGUM 281155
MTRGUM
METAR PGUM 281154Z COR 07009KT 10SM FEW038 SCT050 BKN060 26/23 A2997
RMK AO2 RAB28E40 SLP141 P0000 60000 70004 T02610233 10300 20256
51013




000
SAGM31 PGUM 281155
MTRGUM
METAR PGUM 281154Z COR 07009KT 10SM FEW038 SCT050 BKN060 26/23 A2997
RMK AO2 RAB28E40 SLP141 P0000 60000 70004 T02610233 10300 20256
51013





000
SAGM31 PGUM 281154
MTRGUM
METAR PGUM 281154Z 07009KT 10SM FEW038 SCT050 BKN060 26/23 A2997 RMK
AO2 RAB28E40 SLP141 P0000 60000 70003 T02610233 10300 20256 51013




000
SAGM31 PGUM 281154
MTRGUM
METAR PGUM 281154Z 07009KT 10SM FEW038 SCT050 BKN060 26/23 A2997 RMK
AO2 RAB28E40 SLP141 P0000 60000 70003 T02610233 10300 20256 51013





000
SAGM31 PGUM 281154
MTRGUM
METAR PGUM 281154Z 07009KT 10SM FEW038 SCT050 BKN060 26/23 A2997 RMK
AO2 RAB28E40 SLP141 P0000 60000 70003 T02610233 10300 20256 51013





000
SAGM31 PGUM 281154
MTRGUM
METAR PGUM 281154Z 07009KT 10SM FEW038 SCT050 BKN060 26/23 A2997 RMK
AO2 RAB28E40 SLP141 P0000 60000 70003 T02610233 10300 20256 51013




000
SAGM31 PGUM 281054
MTRGUM
METAR PGUM 281054Z 06009KT 10SM FEW026 26/23 A2996 RMK AO2 SLP137
T02610228




000
SAGM31 PGUM 281054
MTRGUM
METAR PGUM 281054Z 06009KT 10SM FEW026 26/23 A2996 RMK AO2 SLP137
T02610228





000
SAGM31 PGUM 281054
MTRGUM
METAR PGUM 281054Z 06009KT 10SM FEW026 26/23 A2996 RMK AO2 SLP137
T02610228




000
SAGM31 PGUM 281054
MTRGUM
METAR PGUM 281054Z 06009KT 10SM FEW026 26/23 A2996 RMK AO2 SLP137
T02610228





000
SAGM31 PGUM 280954
MTRGUM
METAR PGUM 280954Z 06009KT 10SM FEW039 26/23 A2995 RMK AO2 SLP134
T02610233





000
SAGM31 PGUM 280954
MTRGUM
METAR PGUM 280954Z 06009KT 10SM FEW039 26/23 A2995 RMK AO2 SLP134
T02610233




000
SAGM31 PGUM 280855
MTRGUM
METAR PGUM 280854Z 07011G17KT 10SM FEW030 27/23 A2993 RMK AO2 SLP129
T02670228 53013





000
SAGM31 PGUM 280855
MTRGUM
METAR PGUM 280854Z 07011G17KT 10SM FEW030 27/23 A2993 RMK AO2 SLP129
T02670228 53013




000
SAGM31 PGUM 280855
MTRGUM
METAR PGUM 280854Z 07011G17KT 10SM FEW030 27/23 A2993 RMK AO2 SLP129
T02670228 53013




000
SAGM31 PGUM 280755
MTRGUM
METAR PGUM 280754Z 07010KT 10SM SCT021 28/23 A2992 RMK AO2 SLP122
T02780228





000
SAGM31 PGUM 280755
MTRGUM
METAR PGUM 280754Z 07010KT 10SM SCT021 28/23 A2992 RMK AO2 SLP122
T02780228




000
SAGM31 PGUM 280755
MTRGUM
METAR PGUM 280754Z 07010KT 10SM SCT021 28/23 A2992 RMK AO2 SLP122
T02780228





000
SAGM31 PGUM 280711
MTRGUM
METAR PGUM 280654Z COR 07012KT 10SM SCT023 28/22 A2990 RMK AO2
SLP117 T02830222




000
SAGM31 PGUM 280711
MTRGUM
METAR PGUM 280654Z COR 07012KT 10SM SCT023 28/22 A2990 RMK AO2
SLP117 T02830222





000
SAGM31 PGUM 280655
MTRGUM
METAR PGUM 280654Z 07012KT 10SM SCT023 28/22 A2990 RMK AO2 SLP117
T02830222





000
SAGM31 PGUM 280655
MTRGUM
METAR PGUM 280654Z 07012KT 10SM SCT023 28/22 A2990 RMK AO2 SLP117
T02830222




000
SAGM31 PGUM 280554
MTRGUM
METAR PGUM 280554Z 06014G19KT 10SM SCT027 29/22 A2990 RMK AO2 SLP116
T02940217 10306 20289 56012





000
SAGM31 PGUM 280554
MTRGUM
METAR PGUM 280554Z 06014G19KT 10SM SCT027 29/22 A2990 RMK AO2 SLP116
T02940217 10306 20289 56012




000
SAGM31 PGUM 280554
MTRGUM
METAR PGUM 280554Z 06014G19KT 10SM SCT027 29/22 A2990 RMK AO2 SLP116
T02940217 10306 20289 56012




000
SAGM31 PGUM 280554
MTRGUM
METAR PGUM 280554Z 06014G19KT 10SM SCT027 29/22 A2990 RMK AO2 SLP116
T02940217 10306 20289 56012





000
SAGM31 PGUM 280546
MTRGUM
SPECI PGUM 280546Z 07013KT 10SM SCT025 SCT033 29/22 A2990 RMK AO2




000
SAGM31 PGUM 280546
MTRGUM
SPECI PGUM 280546Z 07013KT 10SM SCT025 SCT033 29/22 A2990 RMK AO2





000
SAGM31 PGUM 280546
MTRGUM
SPECI PGUM 280546Z 07013KT 10SM SCT025 SCT033 29/22 A2990 RMK AO2




000
SAGM31 PGUM 280546
MTRGUM
SPECI PGUM 280546Z 07013KT 10SM SCT025 SCT033 29/22 A2990 RMK AO2





000
SAGM31 PGUM 280506
MTRGUM
SPECI PGUM 280506Z 06015KT 10SM BKN025 BKN029 29/22 A2990 RMK AO2




000
SAGM31 PGUM 280506
MTRGUM
SPECI PGUM 280506Z 06015KT 10SM BKN025 BKN029 29/22 A2990 RMK AO2





000
SAGM31 PGUM 280506
MTRGUM
SPECI PGUM 280506Z 06015KT 10SM BKN025 BKN029 29/22 A2990 RMK AO2




000
SAGM31 PGUM 280506
MTRGUM
SPECI PGUM 280506Z 06015KT 10SM BKN025 BKN029 29/22 A2990 RMK AO2





000
SAGM31 PGUM 280454
MTRGUM
METAR PGUM 280454Z 07013KT 10SM SCT023 BKN033 29/22 A2990 RMK AO2
SLP118 T02940222




000
SAGM31 PGUM 280454
MTRGUM
METAR PGUM 280454Z 07013KT 10SM SCT023 BKN033 29/22 A2990 RMK AO2
SLP118 T02940222





000
SAGM31 PGUM 280454
MTRGUM
METAR PGUM 280454Z 07013KT 10SM SCT023 BKN033 29/22 A2990 RMK AO2
SLP118 T02940222




000
SAGM31 PGUM 280454
MTRGUM
METAR PGUM 280454Z 07013KT 10SM SCT023 BKN033 29/22 A2990 RMK AO2
SLP118 T02940222





000
SAGM31 PGUM 280416
MTRGUM
SPECI PGUM 280415Z 07018G23KT 10SM BKN023 BKN032 29/22 A2991 RMK AO2




000
SAGM31 PGUM 280416
MTRGUM
SPECI PGUM 280415Z 07018G23KT 10SM BKN023 BKN032 29/22 A2991 RMK AO2





000
SAGM31 PGUM 280355
MTRGUM
METAR PGUM 280354Z 08015G20KT 10SM SCT025 30/22 A2992 RMK AO2 SLP124
T03000217




000
SAGM31 PGUM 280355
MTRGUM
METAR PGUM 280354Z 08015G20KT 10SM SCT025 30/22 A2992 RMK AO2 SLP124
T03000217





000
SAGM31 PGUM 280355
MTRGUM
METAR PGUM 280354Z 08015G20KT 10SM SCT025 30/22 A2992 RMK AO2 SLP124
T03000217




000
SAGM31 PGUM 280355
MTRGUM
METAR PGUM 280354Z 08015G20KT 10SM SCT025 30/22 A2992 RMK AO2 SLP124
T03000217





000
SAGM31 PGUM 280255
MTRGUM
METAR PGUM 280254Z 07015KT 10SM BKN024 BKN028 30/23 A2993 RMK AO2
SLP128 60001 T03000228 58016




000
SAGM31 PGUM 280255
MTRGUM
METAR PGUM 280254Z 07015KT 10SM BKN024 BKN028 30/23 A2993 RMK AO2
SLP128 60001 T03000228 58016





000
SAGM31 PGUM 280255
MTRGUM
METAR PGUM 280254Z 07015KT 10SM BKN024 BKN028 30/23 A2993 RMK AO2
SLP128 60001 T03000228 58016




000
SAGM31 PGUM 280255
MTRGUM
METAR PGUM 280254Z 07015KT 10SM BKN024 BKN028 30/23 A2993 RMK AO2
SLP128 60001 T03000228 58016





000
SAGM31 PGUM 280243
MTRGUM
SPECI PGUM 280243Z 06017G21KT 10SM BKN024 BKN028 30/22 A2994 RMK AO2




000
SAGM31 PGUM 280243
MTRGUM
SPECI PGUM 280243Z 06017G21KT 10SM BKN024 BKN028 30/22 A2994 RMK AO2





000
SAGM31 PGUM 280154
MTRGUM
METAR PGUM 280154Z 09013G20KT 10SM SCT024 30/23 A2996 RMK AO2 PK WND
08026/0104 SLP135 P0001 T03000228




000
SAGM31 PGUM 280154
MTRGUM
METAR PGUM 280154Z 09013G20KT 10SM SCT024 30/23 A2996 RMK AO2 PK WND
08026/0104 SLP135 P0001 T03000228





000
SAGM31 PGUM 280106
MTRGUM
SPECI PGUM 280106Z 07018G26KT 10SM FEW022 SCT027 BKN039 29/22 A2997
RMK AO2 PK WND 08026/0104 P0001




000
SAGM31 PGUM 280106
MTRGUM
SPECI PGUM 280106Z 07018G26KT 10SM FEW022 SCT027 BKN039 29/22 A2997
RMK AO2 PK WND 08026/0104 P0001





000
SAGM31 PGUM 280054
MTRGUM
METAR PGUM 280054Z 08019G24KT 10SM SCT022 BKN027 BKN039 30/23 A2997
RMK AO2 SLP141 T03000228




000
SAGM31 PGUM 280054
MTRGUM
METAR PGUM 280054Z 08019G24KT 10SM SCT022 BKN027 BKN039 30/23 A2997
RMK AO2 SLP141 T03000228





000
SAGM31 PGUM 272354
MTRGUM
METAR PGUM 272354Z 06020G27KT 10SM FEW019 SCT024 BKN045 28/23 A2998
RMK AO2 PK WND 06027/2354 SLP144 60001 T02830228 10283 20244 51012





000
SAGM31 PGUM 272354
MTRGUM
METAR PGUM 272354Z 06020G27KT 10SM FEW019 SCT024 BKN045 28/23 A2998
RMK AO2 PK WND 06027/2354 SLP144 60001 T02830228 10283 20244 51012




000
SAGM31 PGUM 272254
MTRGUM
METAR PGUM 272254Z 06013KT 10SM SCT065 BKN100 28/23 A2998 RMK AO2
SLP143 T02780233





000
SAGM31 PGUM 272254
MTRGUM
METAR PGUM 272254Z 06013KT 10SM SCT065 BKN100 28/23 A2998 RMK AO2
SLP143 T02780233




000
SAGM31 PGUM 272254
MTRGUM
METAR PGUM 272254Z 06013KT 10SM SCT065 BKN100 28/23 A2998 RMK AO2
SLP143 T02780233





000
SAGM31 PGUM 272254
MTRGUM
METAR PGUM 272254Z 06013KT 10SM SCT065 BKN100 28/23 A2998 RMK AO2
SLP143 T02780233




000
SAGM31 PGUM 272154
MTRGUM
METAR PGUM 272154Z 06016G21KT 10SM BKN060 26/23 A2997 RMK AO2 SLP141
T02610233





000
SAGM31 PGUM 272154
MTRGUM
METAR PGUM 272154Z 06016G21KT 10SM BKN060 26/23 A2997 RMK AO2 SLP141
T02610233




000
SAGM31 PGUM 272055
MTRGUM
METAR PGUM 272054Z 06011KT 10SM FEW042 25/23 A2994 RMK AO2 SLP133
60001 T02500228 53009




000
SAGM31 PGUM 272055
MTRGUM
METAR PGUM 272054Z 06011KT 10SM FEW042 25/23 A2994 RMK AO2 SLP133
60001 T02500228 53009





000
SAGM31 PGUM 271955
MTRGUM
METAR PGUM 271954Z 05011KT 10SM SCT040 BKN046 25/24 A2993 RMK AO2
RAB1857E06 SLP128 P0001 T02500239




000
SAGM31 PGUM 271955
MTRGUM
METAR PGUM 271954Z 05011KT 10SM SCT040 BKN046 25/24 A2993 RMK AO2
RAB1857E06 SLP128 P0001 T02500239





000
SAGM31 PGUM 271955
MTRGUM
METAR PGUM 271954Z 05011KT 10SM SCT040 BKN046 25/24 A2993 RMK AO2
RAB1857E06 SLP128 P0001 T02500239




000
SAGM31 PGUM 271855
MTRGUM
METAR PGUM 271854Z 04013G19KT 10SM FEW017 25/23 A2992 RMK AO2
RAB05E14 SLP125 P0000 T02500233




000
SAGM31 PGUM 271855
MTRGUM
METAR PGUM 271854Z 04013G19KT 10SM FEW017 25/23 A2992 RMK AO2
RAB05E14 SLP125 P0000 T02500233





000
SAGM31 PGUM 271855
MTRGUM
METAR PGUM 271854Z 04013G19KT 10SM FEW017 25/23 A2992 RMK AO2
RAB05E14 SLP125 P0000 T02500233





000
SAGM31 PGUM 271855
MTRGUM
METAR PGUM 271854Z 04013G19KT 10SM FEW017 25/23 A2992 RMK AO2
RAB05E14 SLP125 P0000 T02500233




000
SAGM31 PGUM 271754
MTRGUM
METAR PGUM 271754Z 05010KT 10SM FEW023 SCT047 24/23 A2992 RMK AO2
SLP124 60001 T02440233 10261 20233 56015




000
SAGM31 PGUM 271754
MTRGUM
METAR PGUM 271754Z 05010KT 10SM FEW023 SCT047 24/23 A2992 RMK AO2
SLP124 60001 T02440233 10261 20233 56015




000
SAGM31 PGUM 271754
MTRGUM
METAR PGUM 271754Z 05010KT 10SM FEW023 SCT047 24/23 A2992 RMK AO2
SLP124 60001 T02440233 10261 20233 56015





000
SAGM31 PGUM 271754
MTRGUM
METAR PGUM 271754Z 05010KT 10SM FEW023 SCT047 24/23 A2992 RMK AO2
SLP124 60001 T02440233 10261 20233 56015





000
SAGM31 PGUM 271654
MTRGUM
METAR PGUM 271654Z 06009KT 10SM FEW037 25/23 A2993 RMK AO2 SLP126
T02500233




000
SAGM31 PGUM 271654
MTRGUM
METAR PGUM 271654Z 06009KT 10SM FEW037 25/23 A2993 RMK AO2 SLP126
T02500233





000
SAGM31 PGUM 271654
MTRGUM
METAR PGUM 271654Z 06009KT 10SM FEW037 25/23 A2993 RMK AO2 SLP126
T02500233





000
SAGM31 PGUM 271654
MTRGUM
METAR PGUM 271654Z 06009KT 10SM FEW037 25/23 A2993 RMK AO2 SLP126
T02500233




000
SAGM31 PGUM 271554
MTRGUM
METAR PGUM 271554Z 07009KT 10SM SCT042 BKN055 25/23 A2994 RMK AO2
SLP132 T02500233





000
SAGM31 PGUM 271554
MTRGUM
METAR PGUM 271554Z 07009KT 10SM SCT042 BKN055 25/23 A2994 RMK AO2
SLP132 T02500233




000
SAGM31 PGUM 271455
MTRGUM
METAR PGUM 271454Z 07010KT 10SM FEW023 BKN046 25/23 A2996 RMK AO2
RAE1356 SLP139 P0000 60001 T02500233 58009





000
SAGM31 PGUM 271455
MTRGUM
METAR PGUM 271454Z 07010KT 10SM FEW023 BKN046 25/23 A2996 RMK AO2
RAE1356 SLP139 P0000 60001 T02500233 58009





000
SAGM31 PGUM 271355
MTRGUM
METAR PGUM 271354Z 05010KT 10SM -RA BKN060 OVC075 24/23 A2998 RMK
AO2 RAE29B45 SLP144 P0000 T02440233 403000233





000
SAGM31 PGUM 271355
MTRGUM
METAR PGUM 271354Z 05010KT 10SM -RA BKN060 OVC075 24/23 A2998 RMK
AO2 RAE29B45 SLP144 P0000 T02440233 403000233




000
SAGM31 PGUM 271255
MTRGUM
METAR PGUM 271254Z 06015G21KT 10SM -RA FEW020 BKN065 OVC085 25/24
A2999 RMK AO2 RAE09B49 SLP146 P0001 T02500239




000
SAGM31 PGUM 271255
MTRGUM
METAR PGUM 271254Z 06015G21KT 10SM -RA FEW020 BKN065 OVC085 25/24
A2999 RMK AO2 RAE09B49 SLP146 P0001 T02500239





000
SAGM31 PGUM 271154
MTRGUM
METAR PGUM 271154Z 06012KT 9SM -RA FEW016 SCT043 OVC085 25/24 A2999
RMK AO2 RAB12E24B52 SLP147 P0000 60010 70018 T02500239 10272 20244
51017




000
SAGM31 PGUM 271154
MTRGUM
METAR PGUM 271154Z 06012KT 9SM -RA FEW016 SCT043 OVC085 25/24 A2999
RMK AO2 RAB12E24B52 SLP147 P0000 60010 70018 T02500239 10272 20244
51017





000
SAGM31 PGUM 271154
MTRGUM
METAR PGUM 271154Z 06012KT 9SM -RA FEW016 SCT043 OVC085 25/24 A2999
RMK AO2 RAB12E24B52 SLP147 P0000 60010 70018 T02500239 10272 20244
51017




000
SAGM31 PGUM 271154
MTRGUM
METAR PGUM 271154Z 06012KT 9SM -RA FEW016 SCT043 OVC085 25/24 A2999
RMK AO2 RAB12E24B52 SLP147 P0000 60010 70018 T02500239 10272 20244
51017





000
SAGM31 PGUM 271054
MTRGUM
METAR PGUM 271054Z 06008KT 9SM FEW018 BKN055 OVC070 25/24 A2997 RMK
AO2 SLP142 T02500239





000
SAGM31 PGUM 271054
MTRGUM
METAR PGUM 271054Z 06008KT 9SM FEW018 BKN055 OVC070 25/24 A2997 RMK
AO2 SLP142 T02500239





000
SAGM31 PGUM 271054
MTRGUM
METAR PGUM 271054Z 06008KT 9SM FEW018 BKN055 OVC070 25/24 A2997 RMK
AO2 SLP142 T02500239




000
SAGM31 PGUM 271054
MTRGUM
METAR PGUM 271054Z 06008KT 9SM FEW018 BKN055 OVC070 25/24 A2997 RMK
AO2 SLP142 T02500239




000
SAGM31 PGUM 271022
MTRGUM
SPECI PGUM 271022Z 07009KT 10SM SCT012 BKN050 BKN080 25/24 A2996 RMK
AO2





000
SAGM31 PGUM 271022
MTRGUM
SPECI PGUM 271022Z 07009KT 10SM SCT012 BKN050 BKN080 25/24 A2996 RMK
AO2




000
SAGM31 PGUM 271022
MTRGUM
SPECI PGUM 271022Z 07009KT 10SM SCT012 BKN050 BKN080 25/24 A2996 RMK
AO2




000
SAGM31 PGUM 271022
MTRGUM
SPECI PGUM 271022Z 07009KT 10SM SCT012 BKN050 BKN080 25/24 A2996 RMK
AO2





000
SAGM31 PGUM 271001
MTRGUM
SPECI PGUM 271000Z 05013KT 10SM BKN012 BKN029 OVC041 24/24 A2996 RMK
AO2




000
SAGM31 PGUM 270955
MTRGUM
METAR PGUM 270954Z 06010KT 10SM FEW012 SCT024 OVC043 24/24 A2995 RMK
AO2 RAB02E52 SLP136 P0000 T02440239





000
SAGM31 PGUM 270955
MTRGUM
METAR PGUM 270954Z 06010KT 10SM FEW012 SCT024 OVC043 24/24 A2995 RMK
AO2 RAB02E52 SLP136 P0000 T02440239




000
SAGM31 PGUM 270936
MTRGUM
SPECI PGUM 270935Z 06009KT 7SM -RA FEW015 BKN030 OVC065 24/24 A2995
RMK AO2 RAB02 P0000




000
SAGM31 PGUM 270936
MTRGUM
SPECI PGUM 270935Z 06009KT 7SM -RA FEW015 BKN030 OVC065 24/24 A2995
RMK AO2 RAB02 P0000





000
SAGM31 PGUM 270914
MTRGUM
SPECI PGUM 270913Z 06010G17KT 10SM SCT015 BKN021 OVC039 24/24 A2994
RMK AO2 RAB02E13 P0000




000
SAGM31 PGUM 270914
MTRGUM
SPECI PGUM 270913Z 06010G17KT 10SM SCT015 BKN021 OVC039 24/24 A2994
RMK AO2 RAB02E13 P0000





000
SAGM31 PGUM 270855
MTRGUM
METAR PGUM 270854Z 06010KT 10SM SCT017 BKN035 OVC049 24/24 A2994 RMK
AO2 RAE52 SLP131 P0005 60005 T02440239 53009





000
SAGM31 PGUM 270855
MTRGUM
METAR PGUM 270854Z 06010KT 10SM SCT017 BKN035 OVC049 24/24 A2994 RMK
AO2 RAE52 SLP131 P0005 60005 T02440239 53009




000
SAGM31 PGUM 270803
MTRGUM
SPECI PGUM 270802Z 08013G18KT 3SM RA BR FEW007 BKN020 OVC034 25/24
A2993 RMK AO2 P0004




000
SAGM31 PGUM 270757
MTRGUM
SPECI PGUM 270756Z 09010G16KT 2 1/2SM +RA BR BKN014 BKN020 OVC040
25/24 A2993 RMK AO2 P0000




000
SAGM31 PGUM 270757
MTRGUM
SPECI PGUM 270756Z 09010G16KT 2 1/2SM +RA BR BKN014 BKN020 OVC040
25/24 A2993 RMK AO2 P0000





000
SAGM31 PGUM 270757
MTRGUM
SPECI PGUM 270756Z 09010G16KT 2 1/2SM +RA BR BKN014 BKN020 OVC040
25/24 A2993 RMK AO2 P0000




000
SAGM31 PGUM 270757
MTRGUM
SPECI PGUM 270756Z 09010G16KT 2 1/2SM +RA BR BKN014 BKN020 OVC040
25/24 A2993 RMK AO2 P0000





000
SAGM31 PGUM 270755
MTRGUM
METAR PGUM 270754Z 09009KT 5SM RA BR BKN016 BKN027 OVC080 25/23
A2993 RMK AO2 RAB23E32B54 SLP128 P0000 T02500233




000
SAGM31 PGUM 270755
MTRGUM
METAR PGUM 270754Z 09009KT 5SM RA BR BKN016 BKN027 OVC080 25/23
A2993 RMK AO2 RAB23E32B54 SLP128 P0000 T02500233





000
SAGM31 PGUM 270712
MTRGUM
SPECI PGUM 270712Z 06014G22KT 10SM SCT014 BKN022 BKN090 27/23 A2992
RMK AO2




000
SAGM31 PGUM 270712
MTRGUM
SPECI PGUM 270712Z 06014G22KT 10SM SCT014 BKN022 BKN090 27/23 A2992
RMK AO2





000
SAGM31 PGUM 270712
MTRGUM
SPECI PGUM 270712Z 06014G22KT 10SM SCT014 BKN022 BKN090 27/23 A2992
RMK AO2




000
SAGM31 PGUM 270712
MTRGUM
SPECI PGUM 270712Z 06014G22KT 10SM SCT014 BKN022 BKN090 27/23 A2992
RMK AO2





000
SAGM31 PGUM 270654
MTRGUM
METAR PGUM 270654Z 05015KT 10SM SCT014 BKN040 BKN085 27/23 A2991 RMK
AO2 RAE29 SLP121 P0000 T02720233





000
SAGM31 PGUM 270654
MTRGUM
METAR PGUM 270654Z 05015KT 10SM SCT014 BKN040 BKN085 27/23 A2991 RMK
AO2 RAE29 SLP121 P0000 T02720233




000
SAGM31 PGUM 270654
MTRGUM
METAR PGUM 270654Z 05015KT 10SM SCT014 BKN040 BKN085 27/23 A2991 RMK
AO2 RAE29 SLP121 P0000 T02720233





000
SAGM31 PGUM 270649
MTRGUM
SPECI PGUM 270649Z 06016KT 10SM SCT014 BKN040 BKN085 27/23 A2991 RMK
AO2 RAE29 P0000




000
SAGM31 PGUM 270649
MTRGUM
SPECI PGUM 270649Z 06016KT 10SM SCT014 BKN040 BKN085 27/23 A2991 RMK
AO2 RAE29 P0000





000
SAGM31 PGUM 270649
MTRGUM
SPECI PGUM 270649Z 06016KT 10SM SCT014 BKN040 BKN085 27/23 A2991 RMK
AO2 RAE29 P0000




000
SAGM31 PGUM 270649
MTRGUM
SPECI PGUM 270649Z 06016KT 10SM SCT014 BKN040 BKN085 27/23 A2991 RMK
AO2 RAE29 P0000





000
SAGM31 PGUM 270554
MTRGUM
METAR PGUM 270554Z 06017KT 7SM -RA SCT014 BKN022 BKN030 27/24 A2991
RMK AO2 RAB19E31B50 SLP121 P0000 60008 T02670244 10300 20256 56016





000
SAGM31 PGUM 270554
MTRGUM
METAR PGUM 270554Z 06017KT 7SM -RA SCT014 BKN022 BKN030 27/24 A2991
RMK AO2 RAB19E31B50 SLP121 P0000 60008 T02670244 10300 20256 56016




000
SAGM31 PGUM 270554
MTRGUM
METAR PGUM 270554Z 06017KT 7SM -RA SCT014 BKN022 BKN030 27/24 A2991
RMK AO2 RAB19E31B50 SLP121 P0000 60008 T02670244 10300 20256 56016





000
SAGM31 PGUM 270554
MTRGUM
METAR PGUM 270554Z 06017KT 7SM -RA SCT014 BKN022 BKN030 27/24 A2991
RMK AO2 RAB19E31B50 SLP121 P0000 60008 T02670244 10300 20256 56016




000
SAGM31 PGUM 270454
MTRGUM
METAR PGUM 270454Z 05018G24KT 10SM SCT015 BKN023 OVC046 28/24 A2992
RMK AO2 PK WND 06030/0416 RAE0355 SLP125 T02780239





000
SAGM31 PGUM 270454
MTRGUM
METAR PGUM 270454Z 05018G24KT 10SM SCT015 BKN023 OVC046 28/24 A2992
RMK AO2 PK WND 06030/0416 RAE0355 SLP125 T02780239




000
SAGM31 PGUM 270454
MTRGUM
METAR PGUM 270454Z 05018G24KT 10SM SCT015 BKN023 OVC046 28/24 A2992
RMK AO2 PK WND 06030/0416 RAE0355 SLP125 T02780239





000
SAGM31 PGUM 270454
MTRGUM
METAR PGUM 270454Z 05018G24KT 10SM SCT015 BKN023 OVC046 28/24 A2992
RMK AO2 PK WND 06030/0416 RAE0355 SLP125 T02780239




000
SAGM31 PGUM 270402
MTRGUM
SPECI PGUM 270401Z 07017G24KT 10SM SCT019 BKN026 BKN040 28/24 A2994
RMK AO2 RAE0355





000
SAGM31 PGUM 270402
MTRGUM
SPECI PGUM 270401Z 07017G24KT 10SM SCT019 BKN026 BKN040 28/24 A2994
RMK AO2 RAE0355




000
SAGM31 PGUM 270402
MTRGUM
SPECI PGUM 270401Z 07017G24KT 10SM SCT019 BKN026 BKN040 28/24 A2994
RMK AO2 RAE0355




000
SAGM31 PGUM 270402
MTRGUM
SPECI PGUM 270401Z 07017G24KT 10SM SCT019 BKN026 BKN040 28/24 A2994
RMK AO2 RAE0355





000
SAGM31 PGUM 270355
MTRGUM
METAR PGUM 270354Z 07016G22KT 9SM -RA FEW017 SCT022 BKN043 27/25
A2994 RMK AO2 PK WND 05028/0341 RAE0255B43 SLP130 P0000 T02720250





000
SAGM31 PGUM 270355
MTRGUM
METAR PGUM 270354Z 07016G22KT 9SM -RA FEW017 SCT022 BKN043 27/25
A2994 RMK AO2 PK WND 05028/0341 RAE0255B43 SLP130 P0000 T02720250




000
SAGM31 PGUM 270355
MTRGUM
METAR PGUM 270354Z 07016G22KT 9SM -RA FEW017 SCT022 BKN043 27/25
A2994 RMK AO2 PK WND 05028/0341 RAE0255B43 SLP130 P0000 T02720250




000
SAGM31 PGUM 270355
MTRGUM
METAR PGUM 270354Z 07016G22KT 9SM -RA FEW017 SCT022 BKN043 27/25
A2994 RMK AO2 PK WND 05028/0341 RAE0255B43 SLP130 P0000 T02720250





000
SAGM31 PGUM 270346
MTRGUM
SPECI PGUM 270345Z 07020G28KT 4SM -RA BKN021 BKN031 BKN055 27/24
A2995 RMK AO2 PK WND 05028/0341 RAE0255B43 P0000




000
SAGM31 PGUM 270309
MTRGUM
METAR PGUM 270254Z COR 05014G22KT 10SM -RA SCT012 BKN028 OVC055
26/25 A2996 RMK AO2 SLP138 P0006 60007 T02610250 56017





000
SAGM31 PGUM 270309
MTRGUM
METAR PGUM 270254Z COR 05014G22KT 10SM -RA SCT012 BKN028 OVC055
26/25 A2996 RMK AO2 SLP138 P0006 60007 T02610250 56017




000
SAGM31 PGUM 270309
MTRGUM
METAR PGUM 270254Z COR 05014G22KT 10SM -RA SCT012 BKN028 OVC055
26/25 A2996 RMK AO2 SLP138 P0006 60007 T02610250 56017





000
SAGM31 PGUM 270309
MTRGUM
METAR PGUM 270254Z COR 05014G22KT 10SM -RA SCT012 BKN028 OVC055
26/25 A2996 RMK AO2 SLP138 P0006 60007 T02610250 56017




000
SAGM31 PGUM 270308
MTRGUM
SPECI PGUM 270307Z 06015KT 10SM FEW012 BKN055 27/25 A2995 RMK AO2
RAE0255





000
SAGM31 PGUM 270308
MTRGUM
SPECI PGUM 270307Z 06015KT 10SM FEW012 BKN055 27/25 A2995 RMK AO2
RAE0255





000
SAGM31 PGUM 270308
MTRGUM
SPECI PGUM 270307Z 06015KT 10SM FEW012 BKN055 27/25 A2995 RMK AO2
RAE0255




000
SAGM31 PGUM 270255
MTRGUM
METAR PGUM 270254Z 05014G22KT 10SM -RA SCT012 BKN028 OVC055 26/25
A2996 RMK AO2 SLP138 P0003 60003 T02610250 56017




000
SAGM31 PGUM 270255
MTRGUM
METAR PGUM 270254Z 05014G22KT 10SM -RA SCT012 BKN028 OVC055 26/25
A2996 RMK AO2 SLP138 P0003 60003 T02610250 56017





000
SAGM31 PGUM 270255
MTRGUM
METAR PGUM 270254Z 05014G22KT 10SM -RA SCT012 BKN028 OVC055 26/25
A2996 RMK AO2 SLP138 P0003 60003 T02610250 56017




000
SAGM31 PGUM 270255
MTRGUM
METAR PGUM 270254Z 05014G22KT 10SM -RA SCT012 BKN028 OVC055 26/25
A2996 RMK AO2 SLP138 P0003 60003 T02610250 56017





000
SAGM31 PGUM 270252
MTRGUM
SPECI PGUM 270251Z 06014G23KT 9SM -RA SCT012 BKN043 OVC055 26/24
A2996 RMK AO2 P0003




000
SAGM31 PGUM 270252
MTRGUM
SPECI PGUM 270251Z 06014G23KT 9SM -RA SCT012 BKN043 OVC055 26/24
A2996 RMK AO2 P0003





000
SAGM31 PGUM 270252
MTRGUM
SPECI PGUM 270251Z 06014G23KT 9SM -RA SCT012 BKN043 OVC055 26/24
A2996 RMK AO2 P0003





000
SAGM31 PGUM 270252
MTRGUM
SPECI PGUM 270251Z 06014G23KT 9SM -RA SCT012 BKN043 OVC055 26/24
A2996 RMK AO2 P0003




000
SAGM31 PGUM 270241
MTRGUM
SPECI PGUM 270240Z 07017G23KT 3SM -RA BR FEW012 BKN024 OVC047 26/24
A2997 RMK AO2 P0003




000
SAGM31 PGUM 270241
MTRGUM
SPECI PGUM 270240Z 07017G23KT 3SM -RA BR FEW012 BKN024 OVC047 26/24
A2997 RMK AO2 P0003





000
SAGM31 PGUM 270241
MTRGUM
SPECI PGUM 270240Z 07017G23KT 3SM -RA BR FEW012 BKN024 OVC047 26/24
A2997 RMK AO2 P0003





000
SAGM31 PGUM 270217
MTRGUM
SPECI PGUM 270216Z 06013KT 8SM FEW011 BKN042 OVC060 26/24 A2997 RMK
AO2 RAE16 P0002




000
SAGM31 PGUM 270217
MTRGUM
SPECI PGUM 270216Z 06013KT 8SM FEW011 BKN042 OVC060 26/24 A2997 RMK
AO2 RAE16 P0002





000
SAGM31 PGUM 270217
MTRGUM
SPECI PGUM 270216Z 06013KT 8SM FEW011 BKN042 OVC060 26/24 A2997 RMK
AO2 RAE16 P0002




000
SAGM31 PGUM 270217
MTRGUM
SPECI PGUM 270216Z 06013KT 8SM FEW011 BKN042 OVC060 26/24 A2997 RMK
AO2 RAE16 P0002





000
SAGM31 PGUM 270207
MTRGUM
SPECI PGUM 270207Z 06019G25KT 3SM -RA BR FEW009 BKN027 OVC041 26/24
A2998 RMK AO2 P0002





000
SAGM31 PGUM 270207
MTRGUM
SPECI PGUM 270207Z 06019G25KT 3SM -RA BR FEW009 BKN027 OVC041 26/24
A2998 RMK AO2 P0002




000
SAGM31 PGUM 270200
MTRGUM
SPECI PGUM 270159Z 05019G25KT 2 1/2SM +RA BR FEW009 BKN027 OVC033
26/25 A2999 RMK AO2 P0001




000
SAGM31 PGUM 270155
MTRGUM
METAR PGUM 270154Z 05016KT 4SM -RA BR SCT020 BKN027 OVC039 27/25
A2999 RMK AO2 PK WND 04027/0139 RAB42 SLP148 P0000 T02670250





000
SAGM31 PGUM 270155
MTRGUM
METAR PGUM 270154Z 05016KT 4SM -RA BR SCT020 BKN027 OVC039 27/25
A2999 RMK AO2 PK WND 04027/0139 RAB42 SLP148 P0000 T02670250





000
SAGM31 PGUM 270155
MTRGUM
METAR PGUM 270154Z 05016KT 4SM -RA BR SCT020 BKN027 OVC039 27/25
A2999 RMK AO2 PK WND 04027/0139 RAB42 SLP148 P0000 T02670250




000
SAGM31 PGUM 270155
MTRGUM
METAR PGUM 270154Z 05016KT 4SM -RA BR SCT020 BKN027 OVC039 27/25
A2999 RMK AO2 PK WND 04027/0139 RAB42 SLP148 P0000 T02670250




000
SAGM31 PGUM 270121
MTRGUM
SPECI PGUM 270120Z 04018G24KT 10SM SCT020 BKN026 OVC034 29/23 A3000
RMK AO2




000
SAGM31 PGUM 270121
MTRGUM
SPECI PGUM 270120Z 04018G24KT 10SM SCT020 BKN026 OVC034 29/23 A3000
RMK AO2





000
SAGM31 PGUM 270055
MTRGUM
METAR PGUM 270054Z 05017KT 10SM SCT020 SCT025 OVC033 29/23 A3001 RMK
AO2 SLP154 T02890228




000
SAGM31 PGUM 270055
MTRGUM
METAR PGUM 270054Z 05017KT 10SM SCT020 SCT025 OVC033 29/23 A3001 RMK
AO2 SLP154 T02890228




000
SAGM31 PGUM 262354
MTRGUM
METAR PGUM 262354Z 03015G22KT 10SM BKN022 OVC033 28/23 A3001 RMK AO2
SLP155 T02830228 10283 20250 50006





000
SAGM31 PGUM 262354
MTRGUM
METAR PGUM 262354Z 03015G22KT 10SM BKN022 OVC033 28/23 A3001 RMK AO2
SLP155 T02830228 10283 20250 50006




000
SAGM31 PGUM 262354
MTRGUM
METAR PGUM 262354Z 03015G22KT 10SM BKN022 OVC033 28/23 A3001 RMK AO2
SLP155 T02830228 10283 20250 50006




000
SAGM31 PGUM 262354
MTRGUM
METAR PGUM 262354Z 03015G22KT 10SM BKN022 OVC033 28/23 A3001 RMK AO2
SLP155 T02830228 10283 20250 50006





000
SAGM31 PGUM 262309
MTRGUM
SPECI PGUM 262309Z 03014G21KT 10SM BKN024 28/22 A3002 RMK AO2





000
SAGM31 PGUM 262309
MTRGUM
SPECI PGUM 262309Z 03014G21KT 10SM BKN024 28/22 A3002 RMK AO2




000
SAGM31 PGUM 262309
MTRGUM
SPECI PGUM 262309Z 03014G21KT 10SM BKN024 28/22 A3002 RMK AO2




000
SAGM31 PGUM 262255
MTRGUM
METAR PGUM 262254Z 04016G25KT 10SM FEW022 BKN036 28/22 A3002 RMK AO2
SLP157 P0001 T02830222




000
SAGM31 PGUM 262255
MTRGUM
METAR PGUM 262254Z 04016G25KT 10SM FEW022 BKN036 28/22 A3002 RMK AO2
SLP157 P0001 T02830222





000
SAGM31 PGUM 262226
MTRGUM
SPECI PGUM 262226Z 03014G23KT 10SM FEW021 SCT027 BKN034 28/22 A3001
RMK AO2




000
SAGM31 PGUM 262226
MTRGUM
SPECI PGUM 262226Z 03014G23KT 10SM FEW021 SCT027 BKN034 28/22 A3001
RMK AO2





000
SAGM31 PGUM 262155
MTRGUM
METAR PGUM 262154Z 03012KT 10SM SCT023 BKN027 OVC080 27/22 A3001 RMK
AO2 SLP153 T02720222




000
SAGM31 PGUM 262155
MTRGUM
METAR PGUM 262154Z 03012KT 10SM SCT023 BKN027 OVC080 27/22 A3001 RMK
AO2 SLP153 T02720222





000
SAGM31 PGUM 262148
MTRGUM
SPECI PGUM 262147Z 03013KT 10SM BKN023 OVC080 27/22 A3000 RMK AO2




000
SAGM31 PGUM 262148
MTRGUM
SPECI PGUM 262147Z 03013KT 10SM BKN023 OVC080 27/22 A3000 RMK AO2





000
SAGM31 PGUM 262148
MTRGUM
SPECI PGUM 262147Z 03013KT 10SM BKN023 OVC080 27/22 A3000 RMK AO2





000
SAGM31 PGUM 262055
MTRGUM
METAR PGUM 262054Z 03008KT 10SM FEW021 SCT028 26/22 A2999 RMK AO2
SLP150 T02560217 51011





000
SAGM31 PGUM 262055
MTRGUM
METAR PGUM 262054Z 03008KT 10SM FEW021 SCT028 26/22 A2999 RMK AO2
SLP150 T02560217 51011





000
SAGM31 PGUM 262055
MTRGUM
METAR PGUM 262054Z 03008KT 10SM FEW021 SCT028 26/22 A2999 RMK AO2
SLP150 T02560217 51011




000
SAGM31 PGUM 262055
MTRGUM
METAR PGUM 262054Z 03008KT 10SM FEW021 SCT028 26/22 A2999 RMK AO2
SLP150 T02560217 51011




000
SAGM31 PGUM 262052
MTRGUM
SPECI PGUM 262051Z 03009KT 10SM FEW021 SCT028 26/22 A2999 RMK AO2





000
SAGM31 PGUM 261955
MTRGUM
METAR PGUM 261954Z 03009KT 10SM FEW020 BKN028 25/22 A2997 RMK AO2
SLP143 T02500222





000
SAGM31 PGUM 261955
MTRGUM
METAR PGUM 261954Z 03009KT 10SM FEW020 BKN028 25/22 A2997 RMK AO2
SLP143 T02500222




000
SAGM31 PGUM 261932
MTRGUM
SPECI PGUM 261931Z 03006KT 10SM FEW018 SCT031 26/22 A2997 RMK AO2





000
SAGM31 PGUM 261932
MTRGUM
SPECI PGUM 261931Z 03006KT 10SM FEW018 SCT031 26/22 A2997 RMK AO2




000
SAGM31 PGUM 261932
MTRGUM
SPECI PGUM 261931Z 03006KT 10SM FEW018 SCT031 26/22 A2997 RMK AO2




000
SAGM31 PGUM 261903
MTRGUM
SPECI PGUM 261903Z 03008KT 10SM FEW020 OVC029 26/22 A2996 RMK AO2





000
SAGM31 PGUM 261903
MTRGUM
SPECI PGUM 261903Z 03008KT 10SM FEW020 OVC029 26/22 A2996 RMK AO2





000
SAGM31 PGUM 261903
MTRGUM
SPECI PGUM 261903Z 03008KT 10SM FEW020 OVC029 26/22 A2996 RMK AO2




000
SAGM31 PGUM 261854
MTRGUM
METAR PGUM 261854Z 04008KT 10SM FEW020 OVC031 26/22 A2996 RMK AO2
SLP137 T02560217




000
SAGM31 PGUM 261854
MTRGUM
METAR PGUM 261854Z 04008KT 10SM FEW020 OVC031 26/22 A2996 RMK AO2
SLP137 T02560217





000
SAGM31 PGUM 261854
MTRGUM
METAR PGUM 261854Z 04008KT 10SM FEW020 OVC031 26/22 A2996 RMK AO2
SLP137 T02560217




000
SAGM31 PGUM 261854
MTRGUM
METAR PGUM 261854Z 04008KT 10SM FEW020 OVC031 26/22 A2996 RMK AO2
SLP137 T02560217





000
SAGM31 PGUM 261754
MTRGUM
METAR PGUM 261754Z 04010KT 10SM SCT028 26/22 A2996 RMK AO2 SLP138
T02560217 10267 20250 56016




000
SAGM31 PGUM 261754
MTRGUM
METAR PGUM 261754Z 04010KT 10SM SCT028 26/22 A2996 RMK AO2 SLP138
T02560217 10267 20250 56016





000
SAGM31 PGUM 261655
MTRGUM
METAR PGUM 261654Z 02008KT 10SM FEW025 25/22 A2997 RMK AO2 SLP142
T02500217





000
SAGM31 PGUM 261655
MTRGUM
METAR PGUM 261654Z 02008KT 10SM FEW025 25/22 A2997 RMK AO2 SLP142
T02500217




000
SAGM31 PGUM 261655
MTRGUM
METAR PGUM 261654Z 02008KT 10SM FEW025 25/22 A2997 RMK AO2 SLP142
T02500217





000
SAGM31 PGUM 261557
MTRGUM
METAR PGUM 261554Z COR 04010KT 10SM FEW025 26/21 A2998 RMK AO2
SLP145 T02560211




000
SAGM31 PGUM 261557
MTRGUM
METAR PGUM 261554Z COR 04010KT 10SM FEW025 26/21 A2998 RMK AO2
SLP145 T02560211





000
SAGM31 PGUM 261555
MTRGUM
METAR PGUM 261554Z 04010KT 10SM CLR 26/21 A2998 RMK AO2 SLP145
T02560211





000
SAGM31 PGUM 261454
MTRGUM
METAR PGUM 261454Z 04010KT 10SM CLR 26/21 A3001 RMK AO2 SLP154
T02560211 58006




000
SAGM31 PGUM 261454
MTRGUM
METAR PGUM 261454Z 04010KT 10SM CLR 26/21 A3001 RMK AO2 SLP154
T02560211 58006




000
SAGM31 PGUM 261454
MTRGUM
METAR PGUM 261454Z 04010KT 10SM CLR 26/21 A3001 RMK AO2 SLP154
T02560211 58006





000
SAGM31 PGUM 261354
MTRGUM
METAR PGUM 261354Z 04015KT 10SM CLR 26/21 A3002 RMK AO2 SLP159
T02560211 403110233




000
SAGM31 PGUM 261354
MTRGUM
METAR PGUM 261354Z 04015KT 10SM CLR 26/21 A3002 RMK AO2 SLP159
T02560211 403110233





000
SAGM31 PGUM 261354
MTRGUM
METAR PGUM 261354Z 04015KT 10SM CLR 26/21 A3002 RMK AO2 SLP159
T02560211 403110233





000
SAGM31 PGUM 261354
MTRGUM
METAR PGUM 261354Z 04015KT 10SM CLR 26/21 A3002 RMK AO2 SLP159
T02560211 403110233




000
SAGM31 PGUM 261254
MTRGUM
METAR PGUM 261254Z 04012KT 10SM CLR 26/22 A3003 RMK AO2 SLP160
T02610217




000
SAGM31 PGUM 261254
MTRGUM
METAR PGUM 261254Z 04012KT 10SM CLR 26/22 A3003 RMK AO2 SLP160
T02610217




000
SAGM31 PGUM 261254
MTRGUM
METAR PGUM 261254Z 04012KT 10SM CLR 26/22 A3003 RMK AO2 SLP160
T02610217





000
SAGM31 PGUM 261156
MTRGUM
METAR PGUM 261154Z COR 04015G23KT 10SM SCT034 26/22 A3003 RMK AO2
SLP160 70001 T02610217 10283 20261 51016




000
SAGM31 PGUM 261156
MTRGUM
METAR PGUM 261154Z COR 04015G23KT 10SM SCT034 26/22 A3003 RMK AO2
SLP160 70001 T02610217 10283 20261 51016





000
SAGM31 PGUM 261156
MTRGUM
METAR PGUM 261154Z COR 04015G23KT 10SM SCT034 26/22 A3003 RMK AO2
SLP160 70001 T02610217 10283 20261 51016




000
SAGM31 PGUM 261156
MTRGUM
METAR PGUM 261154Z COR 04015G23KT 10SM SCT034 26/22 A3003 RMK AO2
SLP160 70001 T02610217 10283 20261 51016





000
SAGM31 PGUM 261154
MTRGUM
METAR PGUM 261154Z 04015G23KT 10SM SCT034 26/22 A3003 RMK AO2 SLP160
70002 T02610217 10283 20261 51016





000
SAGM31 PGUM 261154
MTRGUM
METAR PGUM 261154Z 04015G23KT 10SM SCT034 26/22 A3003 RMK AO2 SLP160
70002 T02610217 10283 20261 51016




000
SAGM31 PGUM 261154
MTRGUM
METAR PGUM 261154Z 04015G23KT 10SM SCT034 26/22 A3003 RMK AO2 SLP160
70002 T02610217 10283 20261 51016




000
SAGM31 PGUM 261154
MTRGUM
METAR PGUM 261154Z 04015G23KT 10SM SCT034 26/22 A3003 RMK AO2 SLP160
70002 T02610217 10283 20261 51016





000
SAGM31 PGUM 261054
MTRGUM
METAR PGUM 261054Z 04014KT 10SM SCT032 26/22 A3002 RMK AO2 SLP156
T02610217





000
SAGM31 PGUM 261054
MTRGUM
METAR PGUM 261054Z 04014KT 10SM SCT032 26/22 A3002 RMK AO2 SLP156
T02610217




000
SAGM31 PGUM 261054
MTRGUM
METAR PGUM 261054Z 04014KT 10SM SCT032 26/22 A3002 RMK AO2 SLP156
T02610217




000
SAGM31 PGUM 261054
MTRGUM
METAR PGUM 261054Z 04014KT 10SM SCT032 26/22 A3002 RMK AO2 SLP156
T02610217





000
SAGM31 PGUM 260955
MTRGUM
METAR PGUM 260954Z 05013KT 10SM CLR 26/22 A2999 RMK AO2 SLP150
T02610217




000
SAGM31 PGUM 260955
MTRGUM
METAR PGUM 260954Z 05013KT 10SM CLR 26/22 A2999 RMK AO2 SLP150
T02610217





000
SAGM31 PGUM 260855
MTRGUM
METAR PGUM 260854Z 04017KT 10SM FEW055 26/22 A2998 RMK AO2 SLP145
T02610217 51007




000
SAGM31 PGUM 260855
MTRGUM
METAR PGUM 260854Z 04017KT 10SM FEW055 26/22 A2998 RMK AO2 SLP145
T02610217 51007





000
SAGM31 PGUM 260855
MTRGUM
METAR PGUM 260854Z 04017KT 10SM FEW055 26/22 A2998 RMK AO2 SLP145
T02610217 51007




000
SAGM31 PGUM 260855
MTRGUM
METAR PGUM 260854Z 04017KT 10SM FEW055 26/22 A2998 RMK AO2 SLP145
T02610217 51007





000
SAGM31 PGUM 260755
MTRGUM
METAR PGUM 260754Z 04016G20KT 10SM FEW024 BKN035 OVC055 27/22 A2997
RMK AO2 SLP143 T02670217




000
SAGM31 PGUM 260755
MTRGUM
METAR PGUM 260754Z 04016G20KT 10SM FEW024 BKN035 OVC055 27/22 A2997
RMK AO2 SLP143 T02670217





000
SAGM31 PGUM 260755
MTRGUM
METAR PGUM 260754Z 04016G20KT 10SM FEW024 BKN035 OVC055 27/22 A2997
RMK AO2 SLP143 T02670217





000
SAGM31 PGUM 260755
MTRGUM
METAR PGUM 260754Z 04016G20KT 10SM FEW024 BKN035 OVC055 27/22 A2997
RMK AO2 SLP143 T02670217




000
SAGM31 PGUM 260655
MTRGUM
METAR PGUM 260654Z 03016G22KT 10SM FEW026 SCT039 27/22 A2997 RMK AO2
SLP140 T02720217




000
SAGM31 PGUM 260655
MTRGUM
METAR PGUM 260654Z 03016G22KT 10SM FEW026 SCT039 27/22 A2997 RMK AO2
SLP140 T02720217





000
SAGM31 PGUM 260655
MTRGUM
METAR PGUM 260654Z 03016G22KT 10SM FEW026 SCT039 27/22 A2997 RMK AO2
SLP140 T02720217





000
SAGM31 PGUM 260655
MTRGUM
METAR PGUM 260654Z 03016G22KT 10SM FEW026 SCT039 27/22 A2997 RMK AO2
SLP140 T02720217




000
SAGM31 PGUM 260554
MTRGUM
METAR PGUM 260554Z 04019G27KT 10SM FEW026 28/21 A2996 RMK AO2 PK WND
05027/0547 SLP136 60000 T02830211 10311 20278 56015





000
SAGM31 PGUM 260554
MTRGUM
METAR PGUM 260554Z 04019G27KT 10SM FEW026 28/21 A2996 RMK AO2 PK WND
05027/0547 SLP136 60000 T02830211 10311 20278 56015




000
SAGM31 PGUM 260554
MTRGUM
METAR PGUM 260554Z 04019G27KT 10SM FEW026 28/21 A2996 RMK AO2 PK WND
05027/0547 SLP136 60000 T02830211 10311 20278 56015




000
SAGM31 PGUM 260554
MTRGUM
METAR PGUM 260554Z 04019G27KT 10SM FEW026 28/21 A2996 RMK AO2 PK WND
05027/0547 SLP136 60000 T02830211 10311 20278 56015





000
SAGM31 PGUM 260454
MTRGUM
METAR PGUM 260454Z 05019KT 10SM FEW030 29/21 A2997 RMK AO2 PK WND
04026/0400 SLP139 T02890206





000
SAGM31 PGUM 260454
MTRGUM
METAR PGUM 260454Z 05019KT 10SM FEW030 29/21 A2997 RMK AO2 PK WND
04026/0400 SLP139 T02890206




000
SAGM31 PGUM 260454
MTRGUM
METAR PGUM 260454Z 05019KT 10SM FEW030 29/21 A2997 RMK AO2 PK WND
04026/0400 SLP139 T02890206





000
SAGM31 PGUM 260354
MTRGUM
METAR PGUM 260354Z 04021KT 10SM FEW060 31/20 A2999 RMK AO2 SLP145
T03060200





000
SAGM31 PGUM 260354
MTRGUM
METAR PGUM 260354Z 04021KT 10SM FEW060 31/20 A2999 RMK AO2 SLP145
T03060200




000
SAGM31 PGUM 260354
MTRGUM
METAR PGUM 260354Z 04021KT 10SM FEW060 31/20 A2999 RMK AO2 SLP145
T03060200





000
SAGM31 PGUM 260255
MTRGUM
METAR PGUM 260254Z 04017G24KT 10SM FEW035 31/22 A3000 RMK AO2 PK WND
05027/0159 SLP152 60000 T03060217 58018




000
SAGM31 PGUM 260255
MTRGUM
METAR PGUM 260254Z 04017G24KT 10SM FEW035 31/22 A3000 RMK AO2 PK WND
05027/0159 SLP152 60000 T03060217 58018




000
SAGM31 PGUM 260255
MTRGUM
METAR PGUM 260254Z 04017G24KT 10SM FEW035 31/22 A3000 RMK AO2 PK WND
05027/0159 SLP152 60000 T03060217 58018





000
SAGM31 PGUM 260255
MTRGUM
METAR PGUM 260254Z 04017G24KT 10SM FEW035 31/22 A3000 RMK AO2 PK WND
05027/0159 SLP152 60000 T03060217 58018





000
SAGM31 PGUM 260205
MTRGUM
SPECI PGUM 260204Z 05017G27KT 10SM FEW027 SCT035 SCT045 31/21 A3002
RMK AO2 PK WND 05027/0159





000
SAGM31 PGUM 260205
MTRGUM
SPECI PGUM 260204Z 05017G27KT 10SM FEW027 SCT035 SCT045 31/21 A3002
RMK AO2 PK WND 05027/0159




000
SAGM31 PGUM 260155
MTRGUM
METAR PGUM 260154Z 05015G21KT 10SM BKN027 BKN035 OVC045 30/22 A3002
RMK AO2 RAB34E43 SLP159 P0000 T03000222




000
SAGM31 PGUM 260155
MTRGUM
METAR PGUM 260154Z 05015G21KT 10SM BKN027 BKN035 OVC045 30/22 A3002
RMK AO2 RAB34E43 SLP159 P0000 T03000222





000
SAGM31 PGUM 260055
MTRGUM
METAR PGUM 260054Z 03021G26KT 10SM FEW028 SCT034 BKN050 29/21 A3005
RMK AO2 PK WND 03026/0052 SLP167 T02940211





000
SAGM31 PGUM 260055
MTRGUM
METAR PGUM 260054Z 03021G26KT 10SM FEW028 SCT034 BKN050 29/21 A3005
RMK AO2 PK WND 03026/0052 SLP167 T02940211




000
SAGM31 PGUM 252354
MTRGUM
METAR PGUM 252354Z 04018G24KT 10SM FEW048 SCT060 29/21 A3006 RMK AO2
SLP170 60001 T02940206 10294 20233 50010




000
SAGM31 PGUM 252354
MTRGUM
METAR PGUM 252354Z 04018G24KT 10SM FEW048 SCT060 29/21 A3006 RMK AO2
SLP170 60001 T02940206 10294 20233 50010




000
SAGM31 PGUM 252354
MTRGUM
METAR PGUM 252354Z 04018G24KT 10SM FEW048 SCT060 29/21 A3006 RMK AO2
SLP170 60001 T02940206 10294 20233 50010





000
SAGM31 PGUM 252354
MTRGUM
METAR PGUM 252354Z 04018G24KT 10SM FEW048 SCT060 29/21 A3006 RMK AO2
SLP170 60001 T02940206 10294 20233 50010





000
SAGM31 PGUM 252254
MTRGUM
METAR PGUM 252254Z 04014KT 10SM BKN055 OVC075 28/21 A3006 RMK AO2
SLP171 T02780206




000
SAGM31 PGUM 252254
MTRGUM
METAR PGUM 252254Z 04014KT 10SM BKN055 OVC075 28/21 A3006 RMK AO2
SLP171 T02780206





000
SAGM31 PGUM 252154
MTRGUM
METAR PGUM 252154Z 04015KT 10SM SCT050 OVC070 26/22 A3005 RMK AO2
SLP167 T02610217




000
SAGM31 PGUM 252154
MTRGUM
METAR PGUM 252154Z 04015KT 10SM SCT050 OVC070 26/22 A3005 RMK AO2
SLP167 T02610217





000
SAGM31 PGUM 252154
MTRGUM
METAR PGUM 252154Z 04015KT 10SM SCT050 OVC070 26/22 A3005 RMK AO2
SLP167 T02610217




000
SAGM31 PGUM 252154
MTRGUM
METAR PGUM 252154Z 04015KT 10SM SCT050 OVC070 26/22 A3005 RMK AO2
SLP167 T02610217





000
SAGM31 PGUM 252054
MTRGUM
METAR PGUM 252054Z 04011KT 10SM SCT060 OVC075 25/22 A3003 RMK AO2
SLP160 60001 T02500222 53008




000
SAGM31 PGUM 252054
MTRGUM
METAR PGUM 252054Z 04011KT 10SM SCT060 OVC075 25/22 A3003 RMK AO2
SLP160 60001 T02500222 53008





000
SAGM31 PGUM 251955
MTRGUM
METAR PGUM 251954Z 04009KT 10SM FEW040 SCT046 BKN060 23/21 A3001 RMK
AO2 RAE15 SLP155 P0001 T02330206




000
SAGM31 PGUM 251955
MTRGUM
METAR PGUM 251954Z 04009KT 10SM FEW040 SCT046 BKN060 23/21 A3001 RMK
AO2 RAE15 SLP155 P0001 T02330206




000
SAGM31 PGUM 251955
MTRGUM
METAR PGUM 251954Z 04009KT 10SM FEW040 SCT046 BKN060 23/21 A3001 RMK
AO2 RAE15 SLP155 P0001 T02330206





000
SAGM31 PGUM 251955
MTRGUM
METAR PGUM 251954Z 04009KT 10SM FEW040 SCT046 BKN060 23/21 A3001 RMK
AO2 RAE15 SLP155 P0001 T02330206





000
SAGM31 PGUM 251855
MTRGUM
METAR PGUM 251854Z 06015KT 5SM -RA BR BKN038 OVC045 24/22 A3001 RMK
AO2 RAB25 SLP155 P0000 T02390222




000
SAGM31 PGUM 251855
MTRGUM
METAR PGUM 251854Z 06015KT 5SM -RA BR BKN038 OVC045 24/22 A3001 RMK
AO2 RAB25 SLP155 P0000 T02390222





000
SAGM31 PGUM 251855
MTRGUM
METAR PGUM 251854Z 06015KT 5SM -RA BR BKN038 OVC045 24/22 A3001 RMK
AO2 RAB25 SLP155 P0000 T02390222





000
SAGM31 PGUM 251855
MTRGUM
METAR PGUM 251854Z 06015KT 5SM -RA BR BKN038 OVC045 24/22 A3001 RMK
AO2 RAB25 SLP155 P0000 T02390222




000
SAGM31 PGUM 251755
MTRGUM
METAR PGUM 251754Z 05014G18KT 10SM OVC070 26/22 A3000 RMK AO2 SLP151
T02610217 10267 20256 56013




000
SAGM31 PGUM 251755
MTRGUM
METAR PGUM 251754Z 05014G18KT 10SM OVC070 26/22 A3000 RMK AO2 SLP151
T02610217 10267 20256 56013




000
SAGM31 PGUM 251755
MTRGUM
METAR PGUM 251754Z 05014G18KT 10SM OVC070 26/22 A3000 RMK AO2 SLP151
T02610217 10267 20256 56013





000
SAGM31 PGUM 251755
MTRGUM
METAR PGUM 251754Z 05014G18KT 10SM OVC070 26/22 A3000 RMK AO2 SLP151
T02610217 10267 20256 56013





000
SAGM31 PGUM 251655
MTRGUM
METAR PGUM 251654Z 05014KT 10SM BKN060 26/22 A3001 RMK AO2 SLP153
T02610217




000
SAGM31 PGUM 251655
MTRGUM
METAR PGUM 251654Z 05014KT 10SM BKN060 26/22 A3001 RMK AO2 SLP153
T02610217





    US Dept of Commerce
    National Oceanic and Atmospheric Administration
    National Weather Service
    1325 East West Highway
    Silver Spring, MD 20910
    Page Author: NWS Internet Services Team
Disclaimer
Information Quality
Credits
Glossary
Privacy Policy
Freedom of Information Act (FOIA)
About Us
Career Opportunities